UAE658 OMDB-VRMM

Flight info

Callsign UAE658
Flight time N/A
Altitude 39000
Route ANVIX L223 TARDI N629 GIDAN P570 KITAL L894 ELBET ELBET1A
Aircraft B77W/H-SDE1E2E3FGHIJ2J3J4J5M1RWXYZ/LB1D1

Departure

Time 2026-05-06 11:48
Airport Dubai International Airport (OMDB)

Arrival

Time N/A
Airport Velana International Airport (VRMM)
Time Latitude Longitude Altitude Speed Heading
2026-05-06 11:10 25.24803 55.36439 34 ft 0 kts 211°
2026-05-06 11:34 25.24810 55.36444 34 ft 2 kts 211°
2026-05-06 11:34 25.24822 55.36452 34 ft 2 kts 212°
2026-05-06 11:34 25.24834 55.36462 34 ft 2 kts 226°
2026-05-06 11:34 25.24843 55.36475 34 ft 2 kts 238°
2026-05-06 11:35 25.24850 55.36489 35 ft 2 kts 249°
2026-05-06 11:35 25.24854 55.36505 36 ft 2 kts 260°
2026-05-06 11:35 25.24855 55.36521 38 ft 2 kts 271°
2026-05-06 11:35 25.24854 55.36537 40 ft 2 kts 282°
2026-05-06 11:36 25.24849 55.36552 41 ft 2 kts 293°
2026-05-06 11:36 25.24845 55.36562 42 ft 0 kts 300°
2026-05-06 11:40 25.24855 55.36542 40 ft 7 kts 301°
2026-05-06 11:40 25.24889 55.36480 37 ft 11 kts 301°
2026-05-06 11:40 25.24932 55.36403 34 ft 14 kts 301°
2026-05-06 11:40 25.24977 55.36321 34 ft 9 kts 301°
2026-05-06 11:41 25.25007 55.36273 34 ft 6 kts 327°
2026-05-06 11:41 25.25038 55.36278 36 ft 4 kts 27°
2026-05-06 11:41 25.25070 55.36298 39 ft 6 kts 30°
2026-05-06 11:41 25.25108 55.36324 42 ft 7 kts 31°
2026-05-06 11:42 25.25151 55.36352 46 ft 6 kts 31°
2026-05-06 11:42 25.25202 55.36386 47 ft 11 kts 31°
2026-05-06 11:42 25.25279 55.36438 48 ft 13 kts 31°
2026-05-06 11:42 25.25356 55.36490 48 ft 13 kts 31°
2026-05-06 11:43 25.25410 55.36529 47 ft 6 kts 53°
2026-05-06 11:43 25.25404 55.36583 47 ft 8 kts 117°
2026-05-06 11:43 25.25373 55.36641 48 ft 9 kts 121°
2026-05-06 11:44 25.25295 55.36783 50 ft 12 kts 121°
2026-05-06 11:44 25.25248 55.36869 50 ft 15 kts 121°
2026-05-06 11:44 25.25183 55.36986 52 ft 19 kts 121°
2026-05-06 11:44 25.25111 55.37114 52 ft 18 kts 122°
2026-05-06 11:45 25.25041 55.37239 52 ft 18 kts 121°
2026-05-06 11:45 25.24974 55.37362 53 ft 18 kts 121°
2026-05-06 11:45 25.24910 55.37477 55 ft 16 kts 121°
2026-05-06 11:45 25.24852 55.37581 55 ft 17 kts 121°
2026-05-06 11:46 25.24787 55.37699 55 ft 17 kts 121°
2026-05-06 11:46 25.24726 55.37810 55 ft 14 kts 121°
2026-05-06 11:46 25.24680 55.37892 56 ft 8 kts 121°
2026-05-06 11:46 25.24665 55.37942 57 ft 5 kts 62°
2026-05-06 11:47 25.24700 55.37973 58 ft 7 kts 34°
2026-05-06 11:47 25.24747 55.38008 58 ft 9 kts 33°
2026-05-06 11:47 25.24794 55.38031 58 ft 6 kts 343°
2026-05-06 11:47 25.24825 55.37992 58 ft 7 kts 303°
2026-05-06 11:48 25.24901 55.37860 56 ft 48 kts 301°
2026-05-06 11:48 25.25208 55.37309 52 ft 124 kts 301°
2026-05-06 11:48 25.25757 55.36318 178 ft 176 kts 302°
2026-05-06 11:48 25.26387 55.35165 850 ft 188 kts 302°
2026-05-06 11:49 25.27046 55.33952 1691 ft 192 kts 302°
2026-05-06 11:49 25.27763 55.32640 2072 ft 210 kts 302°
2026-05-06 11:49 25.28525 55.31276 2707 ft 213 kts 302°
2026-05-06 11:49 25.29096 55.29766 3292 ft 217 kts 277°
2026-05-06 11:50 25.28798 55.27596 4095 ft 219 kts 245°
2026-05-06 11:50 25.28372 55.26590 4508 ft 221 kts 242°
2026-05-06 11:50 25.27697 55.25090 5117 ft 225 kts 242°
2026-05-06 11:50 25.27019 55.23526 5748 ft 228 kts 243°
2026-05-06 11:51 25.26354 55.21923 6393 ft 230 kts 243°
2026-05-06 11:51 25.25664 55.20313 6896 ft 241 kts 243°
2026-05-06 11:51 25.24877 55.18581 7318 ft 255 kts 234°
2026-05-06 11:51 25.23599 55.17258 7845 ft 259 kts 205°
2026-05-06 11:52 25.21836 55.16760 8386 ft 263 kts 178°
2026-05-06 11:52 25.19992 55.16927 8846 ft 271 kts 161°
2026-05-06 11:52 25.18359 55.17914 9531 ft 270 kts 136°
2026-05-06 11:52 25.17183 55.19604 9766 ft 289 kts 116°
2026-05-06 11:53 25.16285 55.21585 10490 ft 293 kts 115°
2026-05-06 11:53 25.15361 55.23607 11229 ft 298 kts 116°
2026-05-06 11:53 25.14395 55.25649 12014 ft 303 kts 117°
2026-05-06 11:53 25.13407 55.27712 12864 ft 308 kts 117°
2026-05-06 11:54 25.12405 55.29795 13792 ft 310 kts 117°
2026-05-06 11:54 25.11406 55.31871 14799 ft 312 kts 117°
2026-05-06 11:54 25.10420 55.33931 15799 ft 314 kts 115°
2026-05-06 11:54 25.09520 55.36100 16753 ft 317 kts 113°
2026-05-06 11:55 25.08627 55.38338 17664 ft 322 kts 114°
2026-05-06 11:55 25.07712 55.40595 18434 ft 330 kts 114°
2026-05-06 11:55 25.06802 55.42838 19109 ft 341 kts 113°
2026-05-06 11:55 25.05897 55.45197 19586 ft 357 kts 113°
2026-05-06 11:56 25.04916 55.47770 20073 ft 375 kts 113°
2026-05-06 11:56 25.03524 55.51394 20735 ft 397 kts 113°
2026-05-06 11:56 25.02797 55.53285 21057 ft 408 kts 113°
2026-05-06 11:56 25.01550 55.56182 21509 ft 424 kts 120°
2026-05-06 11:57 25.00058 55.58994 21940 ft 440 kts 121°
2026-05-06 11:57 24.98455 55.61956 22335 ft 457 kts 121°
2026-05-06 11:57 24.96806 55.65001 22749 ft 471 kts 121°
2026-05-06 11:57 24.95098 55.68156 23364 ft 480 kts 122°
2026-05-06 11:58 24.93266 55.71252 24059 ft 485 kts 127°
2026-05-06 11:58 24.91276 55.74275 24721 ft 491 kts 128°
2026-05-06 11:58 24.89255 55.77315 25348 ft 498 kts 128°
2026-05-06 11:58 24.87206 55.80397 25990 ft 504 kts 128°
2026-05-06 11:59 24.85131 55.83519 26646 ft 510 kts 128°
2026-05-06 11:59 24.83025 55.86674 27242 ft 516 kts 128°
2026-05-06 11:59 24.80864 55.89864 27861 ft 522 kts 129°
2026-05-06 11:59 24.78632 55.93063 28468 ft 527 kts 133°
2026-05-06 12:00 24.76057 55.96010 29045 ft 530 kts 139°
2026-05-06 12:00 24.73384 55.98774 29759 ft 532 kts 140°
2026-05-06 12:00 24.70745 56.01482 30680 ft 529 kts 140°
2026-05-06 12:00 24.68209 56.04084 31596 ft 524 kts 140°
2026-05-06 12:01 24.65741 56.06619 32335 ft 523 kts 140°
2026-05-06 12:01 24.63202 56.09228 33015 ft 523 kts 140°
2026-05-06 12:01 24.60730 56.11768 33694 ft 523 kts 140°
2026-05-06 12:01 24.58293 56.14272 34454 ft 521 kts 139°
2026-05-06 12:02 24.55754 56.17215 35399 ft 518 kts 134°
2026-05-06 12:02 24.53382 56.20222 36294 ft 513 kts 133°
2026-05-06 12:02 24.50998 56.23265 37035 ft 510 kts 133°
2026-05-06 12:02 24.48666 56.26239 37609 ft 510 kts 133°
2026-05-06 12:03 24.46315 56.29233 38133 ft 509 kts 134°
2026-05-06 12:03 24.43977 56.32209 38735 ft 507 kts 134°
2026-05-06 12:03 24.41620 56.35205 38929 ft 511 kts 134°
2026-05-06 12:03 24.39263 56.38200 38913 ft 508 kts 134°
2026-05-06 12:04 24.34635 56.44074 38864 ft 506 kts 134°
2026-05-06 12:04 24.29972 56.49985 38828 ft 507 kts 134°
2026-05-06 12:05 24.25657 56.56227 38816 ft 509 kts 128°
2026-05-06 12:05 24.21513 56.62582 38819 ft 509 kts 128°
2026-05-06 12:06 24.17318 56.68943 38804 ft 507 kts 129°
2026-05-06 12:06 24.13285 56.75029 38799 ft 508 kts 129°
2026-05-06 12:07 24.09042 56.81424 38788 ft 508 kts 129°
2026-05-06 12:07 24.04892 56.87672 38781 ft 506 kts 129°
2026-05-06 12:08 24.00700 56.93953 38777 ft 507 kts 129°
2026-05-06 12:08 23.96497 57.00227 38776 ft 508 kts 129°
2026-05-06 12:09 23.92253 57.06554 38788 ft 509 kts 129°
2026-05-06 12:09 23.88049 57.12817 38788 ft 509 kts 129°
2026-05-06 12:10 23.83852 57.19063 38800 ft 508 kts 129°
2026-05-06 12:10 23.79674 57.25275 38811 ft 506 kts 129°
2026-05-06 12:11 23.75477 57.31506 38812 ft 507 kts 128°
2026-05-06 12:11 23.71251 57.37750 38821 ft 505 kts 130°
2026-05-06 12:12 23.66835 57.43819 38819 ft 505 kts 130°
2026-05-06 12:12 23.62399 57.49888 38816 ft 503 kts 130°
2026-05-06 12:13 23.57978 57.55940 38824 ft 505 kts 130°
2026-05-06 12:13 23.53574 57.61971 38828 ft 507 kts 130°
2026-05-06 12:14 23.49136 57.68045 38818 ft 505 kts 130°
2026-05-06 12:14 23.44731 57.74065 38837 ft 504 kts 130°
2026-05-06 12:15 23.40347 57.80049 38854 ft 504 kts 130°
2026-05-06 12:15 23.35949 57.86046 38879 ft 503 kts 131°
2026-05-06 12:16 23.31533 57.92060 38900 ft 503 kts 130°
2026-05-06 12:16 23.27135 57.98042 38904 ft 505 kts 130°
2026-05-06 12:17 23.22765 58.04148 38931 ft 504 kts 126°
2026-05-06 12:17 23.18807 58.10505 38959 ft 505 kts 126°
2026-05-06 12:18 23.14853 58.16834 38984 ft 504 kts 126°
2026-05-06 12:18 23.10883 58.23150 39005 ft 503 kts 126°
2026-05-06 12:19 23.06895 58.29465 38996 ft 504 kts 126°
2026-05-06 12:19 23.02766 58.35589 39005 ft 501 kts 134°
2026-05-06 12:20 22.97338 58.40462 39010 ft 497 kts 149°
2026-05-06 12:20 22.91325 58.44487 39000 ft 497 kts 150°
2026-05-06 12:21 22.85348 58.48452 38981 ft 497 kts 150°
2026-05-06 12:21 22.79441 58.52366 38957 ft 496 kts 150°
2026-05-06 12:22 22.73521 58.56283 38942 ft 496 kts 150°
2026-05-06 12:22 22.67563 58.60221 38935 ft 497 kts 150°
2026-05-06 12:23 22.61635 58.64135 38929 ft 496 kts 150°
2026-05-06 12:23 22.55722 58.68036 38909 ft 496 kts 150°
2026-05-06 12:24 22.49838 58.71914 38900 ft 496 kts 150°
2026-05-06 12:24 22.43951 58.75791 38900 ft 496 kts 150°
2026-05-06 12:25 22.38016 58.79694 38891 ft 495 kts 150°
2026-05-06 12:25 22.32125 58.83565 38880 ft 495 kts 150°
2026-05-06 12:26 22.26187 58.87462 38871 ft 496 kts 150°
2026-05-06 12:26 22.20294 58.91327 38862 ft 496 kts 150°
2026-05-06 12:27 22.14381 58.95201 38862 ft 495 kts 149°
2026-05-06 12:27 22.08479 58.99063 38862 ft 495 kts 150°
2026-05-06 12:28 22.02569 59.02927 38855 ft 494 kts 150°
2026-05-06 12:28 21.96670 59.06781 38848 ft 494 kts 149°
2026-05-06 12:29 21.90748 59.10645 38842 ft 495 kts 149°
2026-05-06 12:29 21.84872 59.14475 38835 ft 495 kts 149°
2026-05-06 12:30 21.78972 59.18318 38828 ft 494 kts 149°
2026-05-06 12:30 21.73064 59.22163 38825 ft 495 kts 149°
2026-05-06 12:31 21.67527 59.25761 38815 ft 494 kts 149°
2026-05-06 12:31 21.61653 59.29576 38811 ft 493 kts 149°
2026-05-06 12:32 21.55777 59.33390 38813 ft 494 kts 149°
2026-05-06 12:32 21.49896 59.37205 38812 ft 494 kts 149°
2026-05-06 12:33 21.43987 59.41034 38812 ft 494 kts 149°
2026-05-06 12:33 21.38131 59.44825 38813 ft 494 kts 149°
2026-05-06 12:34 21.32244 59.48632 38815 ft 493 kts 149°
2026-05-06 12:34 21.26365 59.52432 38814 ft 493 kts 149°
2026-05-06 12:35 21.20466 59.56239 38816 ft 492 kts 149°
2026-05-06 12:35 21.14584 59.60030 38819 ft 493 kts 149°
2026-05-06 12:36 21.08699 59.63821 38823 ft 492 kts 149°
2026-05-06 12:36 21.02841 59.67590 38825 ft 492 kts 149°
2026-05-06 12:37 20.96980 59.71357 38828 ft 493 kts 149°
2026-05-06 12:37 20.91103 59.75129 38828 ft 493 kts 149°
2026-05-06 12:38 20.85205 59.78910 38832 ft 491 kts 149°
2026-05-06 12:38 20.79347 59.82664 38830 ft 491 kts 149°
2026-05-06 12:39 20.73477 59.86421 38831 ft 492 kts 149°
2026-05-06 12:39 20.67599 59.90179 38831 ft 492 kts 149°
2026-05-06 12:40 20.61714 59.93939 38824 ft 491 kts 149°
2026-05-06 12:40 20.55854 59.97680 38824 ft 491 kts 149°
2026-05-06 12:41 20.49983 60.01424 38832 ft 491 kts 149°
2026-05-06 12:41 20.44088 60.05180 38832 ft 491 kts 149°
2026-05-06 12:42 20.38247 60.08898 38825 ft 491 kts 149°
2026-05-06 12:42 20.32379 60.12631 38823 ft 491 kts 149°
2026-05-06 12:43 20.26467 60.16387 38825 ft 491 kts 149°
2026-05-06 12:43 20.20589 60.20119 38829 ft 491 kts 149°
2026-05-06 12:44 20.14725 60.23838 38830 ft 492 kts 149°
2026-05-06 12:44 20.08861 60.27555 38827 ft 491 kts 149°
2026-05-06 12:45 20.03220 60.31692 38831 ft 490 kts 139°
2026-05-06 12:46 19.95609 60.38924 38828 ft 491 kts 138°
2026-05-06 12:46 19.90505 60.43784 38828 ft 492 kts 138°
2026-05-06 12:47 19.85404 60.48633 38827 ft 492 kts 138°
2026-05-06 12:47 19.80318 60.53462 38827 ft 491 kts 138°
2026-05-06 12:48 19.75191 60.58324 38828 ft 491 kts 138°
2026-05-06 12:48 19.70097 60.63151 38827 ft 490 kts 137°
2026-05-06 12:49 19.65010 60.67966 38826 ft 492 kts 138°
2026-05-06 12:49 19.59927 60.72772 38827 ft 491 kts 138°
2026-05-06 12:50 19.54782 60.77633 38829 ft 491 kts 138°
2026-05-06 12:50 19.49667 60.82462 38834 ft 491 kts 138°
2026-05-06 12:51 19.44572 60.87267 38839 ft 491 kts 138°
2026-05-06 12:51 19.39470 60.92075 38846 ft 491 kts 137°
2026-05-06 12:52 19.34358 60.96888 38846 ft 490 kts 138°
2026-05-06 12:52 19.29245 61.01698 38848 ft 490 kts 138°
2026-05-06 12:53 19.24130 61.06505 38848 ft 490 kts 138°
2026-05-06 12:53 19.19045 61.11279 38848 ft 490 kts 137°
2026-05-06 12:54 19.13934 61.16074 38848 ft 489 kts 137°
2026-05-06 12:54 19.08836 61.20853 38848 ft 489 kts 137°
2026-05-06 12:55 19.03764 61.25605 38849 ft 489 kts 137°
2026-05-06 12:55 18.98670 61.30371 38848 ft 489 kts 138°
2026-05-06 12:56 18.93559 61.35151 38848 ft 489 kts 137°
2026-05-06 12:56 18.88473 61.39902 38846 ft 489 kts 137°
2026-05-06 12:57 18.83379 61.44656 38846 ft 488 kts 137°
2026-05-06 12:57 18.78304 61.49390 38847 ft 488 kts 137°
2026-05-06 12:58 18.73232 61.54116 38841 ft 488 kts 138°
2026-05-06 12:58 18.68126 61.58870 38832 ft 488 kts 138°
2026-05-06 12:59 18.63036 61.63606 38829 ft 489 kts 138°
2026-05-06 12:59 18.57926 61.68356 38827 ft 490 kts 138°
2026-05-06 13:00 18.52835 61.73084 38827 ft 489 kts 138°
2026-05-06 13:00 18.47856 61.77704 38827 ft 487 kts 138°
2026-05-06 13:01 18.42756 61.82434 38827 ft 488 kts 138°
2026-05-06 13:01 18.37681 61.87135 38827 ft 488 kts 138°
2026-05-06 13:02 18.32564 61.91873 38827 ft 488 kts 138°
2026-05-06 13:02 18.27434 61.96618 38827 ft 488 kts 138°
2026-05-06 13:03 18.22355 62.01311 38827 ft 488 kts 138°
2026-05-06 13:03 18.17242 62.06034 38827 ft 486 kts 139°
2026-05-06 13:04 18.12116 62.10763 38827 ft 487 kts 138°
2026-05-06 13:04 18.07030 62.15452 38827 ft 486 kts 138°
2026-05-06 13:05 18.01964 62.20119 38834 ft 487 kts 138°
2026-05-06 13:05 17.96853 62.24823 38844 ft 487 kts 138°
2026-05-06 13:06 17.91768 62.29500 38849 ft 487 kts 138°
2026-05-06 13:06 17.86684 62.34173 38848 ft 486 kts 139°
2026-05-06 13:07 17.81590 62.38851 38851 ft 486 kts 138°
2026-05-06 13:07 17.76476 62.43543 38847 ft 486 kts 138°
2026-05-06 13:08 17.71398 62.48199 38844 ft 486 kts 138°
2026-05-06 13:08 17.66317 62.52855 38846 ft 486 kts 138°
2026-05-06 13:09 17.61207 62.57532 38846 ft 486 kts 138°
2026-05-06 13:09 17.56041 62.62257 38850 ft 486 kts 138°
2026-05-06 13:10 17.50939 62.66921 38845 ft 486 kts 138°
2026-05-06 13:10 17.45834 62.71583 38851 ft 486 kts 139°
2026-05-06 13:11 17.40744 62.76228 38850 ft 485 kts 138°
2026-05-06 13:11 17.35651 62.80872 38849 ft 485 kts 138°
2026-05-06 13:12 17.30524 62.85543 38847 ft 484 kts 138°
2026-05-06 13:12 17.25421 62.90189 38848 ft 484 kts 138°
2026-05-06 13:13 17.20356 62.94798 38849 ft 483 kts 138°
2026-05-06 13:13 17.15222 62.99466 38851 ft 483 kts 138°
2026-05-06 13:14 17.10154 63.04069 38841 ft 483 kts 138°
2026-05-06 13:14 17.05039 63.08712 38844 ft 482 kts 138°
2026-05-06 13:15 16.99961 63.13306 38843 ft 482 kts 139°
2026-05-06 13:15 16.94736 63.17838 38846 ft 483 kts 140°
2026-05-06 13:16 16.89534 63.22339 38840 ft 482 kts 140°
2026-05-06 13:16 16.84367 63.26812 38831 ft 482 kts 140°
2026-05-06 13:17 16.79193 63.31290 38837 ft 482 kts 140°
2026-05-06 13:17 16.74039 63.35751 38845 ft 481 kts 140°
2026-05-06 13:18 16.68846 63.40243 38845 ft 483 kts 139°
2026-05-06 13:18 16.63630 63.44751 38847 ft 483 kts 139°
2026-05-06 13:19 16.58416 63.49255 38846 ft 482 kts 139°
2026-05-06 13:19 16.53240 63.53723 38845 ft 482 kts 139°
2026-05-06 13:20 16.48073 63.58181 38848 ft 482 kts 139°
2026-05-06 13:20 16.42886 63.62651 38845 ft 482 kts 140°
2026-05-06 13:21 16.37682 63.67134 38849 ft 482 kts 140°
2026-05-06 13:21 16.32528 63.71571 38849 ft 481 kts 140°
2026-05-06 13:22 16.27361 63.76015 38848 ft 481 kts 140°
2026-05-06 13:22 16.22172 63.80475 38849 ft 482 kts 140°
2026-05-06 13:23 16.17000 63.84917 38847 ft 482 kts 140°
2026-05-06 13:23 16.11827 63.89358 38847 ft 482 kts 140°
2026-05-06 13:24 16.06620 63.93824 38848 ft 481 kts 140°
2026-05-06 13:24 16.01449 63.98257 38848 ft 480 kts 140°
2026-05-06 13:25 15.96259 64.02702 38848 ft 481 kts 140°
2026-05-06 13:25 15.91073 64.07141 38848 ft 482 kts 140°
2026-05-06 13:26 15.85892 64.11573 38848 ft 482 kts 140°
2026-05-06 13:26 15.80692 64.16018 38847 ft 482 kts 140°
2026-05-06 13:27 15.75536 64.20422 38847 ft 481 kts 140°
2026-05-06 13:27 15.70393 64.24812 38847 ft 481 kts 140°
2026-05-06 13:28 15.65222 64.29223 38847 ft 480 kts 140°
2026-05-06 13:28 15.60058 64.33626 38847 ft 479 kts 140°
2026-05-06 13:29 15.54891 64.38027 38852 ft 480 kts 140°
2026-05-06 13:29 15.49722 64.42427 38856 ft 480 kts 140°
2026-05-06 13:30 15.44568 64.46812 38853 ft 480 kts 140°
2026-05-06 13:30 15.39415 64.51193 38851 ft 480 kts 140°
2026-05-06 13:31 15.34247 64.55583 38845 ft 478 kts 140°
2026-05-06 13:31 15.29491 64.59621 38846 ft 478 kts 140°
2026-05-06 13:32 15.24144 64.64159 38846 ft 478 kts 140°
2026-05-06 13:32 15.18978 64.68540 38848 ft 479 kts 140°
2026-05-06 13:33 15.13834 64.72899 38848 ft 479 kts 140°
2026-05-06 13:33 15.08659 64.77281 38848 ft 479 kts 140°
2026-05-06 13:34 15.03525 64.81626 38848 ft 478 kts 140°
2026-05-06 13:34 14.98374 64.85983 38848 ft 477 kts 140°
2026-05-06 13:35 14.93224 64.90336 38847 ft 477 kts 140°
2026-05-06 13:35 14.88084 64.94678 38848 ft 478 kts 140°
2026-05-06 13:36 14.82918 64.99039 38848 ft 478 kts 140°
2026-05-06 13:36 14.77786 65.03368 38848 ft 477 kts 140°
2026-05-06 13:37 14.72622 65.07722 38848 ft 478 kts 140°
2026-05-06 13:37 14.67441 65.12087 38847 ft 478 kts 140°
2026-05-06 13:38 14.62285 65.16428 38847 ft 477 kts 140°
2026-05-06 13:38 14.57131 65.20765 38847 ft 477 kts 140°
2026-05-06 13:39 14.51971 65.25102 38847 ft 477 kts 140°
2026-05-06 13:39 14.46819 65.29429 38846 ft 477 kts 140°
2026-05-06 13:40 14.41663 65.33757 38847 ft 477 kts 140°
2026-05-06 13:40 14.36517 65.38074 38846 ft 477 kts 140°
2026-05-06 13:41 14.31335 65.42418 38846 ft 477 kts 140°
2026-05-06 13:41 14.26188 65.46731 38846 ft 477 kts 140°
2026-05-06 13:42 14.20986 65.51087 38846 ft 478 kts 140°
2026-05-06 13:42 14.15804 65.55423 38845 ft 478 kts 140°
2026-05-06 13:43 14.10638 65.59744 38845 ft 477 kts 140°
2026-05-06 13:43 14.05480 65.64055 38845 ft 477 kts 140°
2026-05-06 13:44 14.00315 65.68369 38848 ft 477 kts 140°
2026-05-06 13:44 13.95135 65.72694 38847 ft 477 kts 140°
2026-05-06 13:45 13.89977 65.76997 38840 ft 476 kts 140°
2026-05-06 13:45 13.82262 65.83430 38830 ft 475 kts 140°
2026-05-06 13:46 13.77116 65.87717 38828 ft 476 kts 140°
2026-05-06 13:46 13.71984 65.91991 38827 ft 476 kts 140°
2026-05-06 13:47 13.66817 65.96290 38828 ft 475 kts 140°
2026-05-06 13:47 13.61860 66.00413 38831 ft 475 kts 140°
2026-05-06 13:48 13.56894 66.04540 38841 ft 475 kts 140°
2026-05-06 13:48 13.51743 66.08820 38846 ft 475 kts 140°
2026-05-06 13:49 13.46623 66.13071 38847 ft 476 kts 140°
2026-05-06 13:49 13.41446 66.17367 38847 ft 476 kts 140°
2026-05-06 13:50 13.36302 66.21632 38847 ft 475 kts 140°
2026-05-06 13:50 13.31153 66.25899 38847 ft 474 kts 140°
2026-05-06 13:51 13.25985 66.30181 38847 ft 475 kts 140°
2026-05-06 13:51 13.20805 66.34470 38846 ft 475 kts 140°
2026-05-06 13:52 13.15658 66.38729 38846 ft 476 kts 140°
2026-05-06 13:52 13.10491 66.43002 38846 ft 476 kts 140°
2026-05-06 13:53 13.05289 66.47302 38846 ft 476 kts 140°
2026-05-06 13:53 13.00109 66.51580 38845 ft 476 kts 140°
2026-05-06 13:54 12.94958 66.55833 38845 ft 476 kts 140°
2026-05-06 13:54 12.89870 66.60031 38845 ft 475 kts 140°
2026-05-06 13:55 12.84696 66.64299 38845 ft 476 kts 140°
2026-05-06 13:55 12.79523 66.68563 38849 ft 477 kts 140°
2026-05-06 13:56 12.74338 66.72834 38849 ft 476 kts 140°
2026-05-06 13:56 12.69195 66.77069 38848 ft 476 kts 140°
2026-05-06 13:57 12.64007 66.81338 38849 ft 475 kts 140°
2026-05-06 13:57 12.58869 66.85564 38848 ft 475 kts 140°
2026-05-06 13:58 12.53689 66.89823 38848 ft 476 kts 140°
2026-05-06 13:58 12.48508 66.94079 38846 ft 476 kts 140°
2026-05-06 13:59 12.43320 66.98340 38837 ft 477 kts 140°
2026-05-06 13:59 12.38141 67.02590 38836 ft 476 kts 140°
2026-05-06 14:00 12.32949 67.06850 38831 ft 475 kts 140°
2026-05-06 14:00 12.27779 67.11088 38829 ft 474 kts 140°
2026-05-06 14:01 12.22621 67.15315 38826 ft 474 kts 140°
2026-05-06 14:01 12.17471 67.19534 38826 ft 474 kts 140°
2026-05-06 14:02 12.12287 67.23777 38822 ft 475 kts 140°
2026-05-06 14:02 12.07142 67.27986 38830 ft 475 kts 140°
2026-05-06 14:03 12.01975 67.32212 38837 ft 475 kts 140°
2026-05-06 14:03 11.96807 67.36437 38845 ft 474 kts 140°
2026-05-06 14:04 11.91662 67.40640 38845 ft 473 kts 140°
2026-05-06 14:04 11.86527 67.44836 38847 ft 472 kts 140°
2026-05-06 14:05 11.81392 67.49028 38844 ft 472 kts 140°
2026-05-06 14:05 11.76256 67.53219 38845 ft 472 kts 140°
2026-05-06 14:06 11.71129 67.57400 38842 ft 472 kts 140°
2026-05-06 14:06 11.66029 67.61559 38844 ft 472 kts 140°
2026-05-06 14:07 11.60844 67.65783 38846 ft 471 kts 140°
2026-05-06 14:07 11.55709 67.69966 38850 ft 470 kts 140°
2026-05-06 14:08 11.50561 67.74156 38852 ft 470 kts 140°
2026-05-06 14:08 11.45444 67.78320 38849 ft 470 kts 140°
2026-05-06 14:09 11.40343 67.82468 38851 ft 470 kts 140°
2026-05-06 14:09 11.35218 67.86635 38850 ft 469 kts 140°
2026-05-06 14:10 11.30085 67.90805 38847 ft 468 kts 140°
2026-05-06 14:10 11.24987 67.94946 38852 ft 468 kts 141°
2026-05-06 14:11 11.19913 67.99064 38847 ft 467 kts 140°
2026-05-06 14:11 11.14784 68.03225 38850 ft 468 kts 141°
2026-05-06 14:12 11.09710 68.07340 38842 ft 466 kts 140°
2026-05-06 14:12 11.04594 68.11488 38846 ft 467 kts 141°
2026-05-06 14:13 10.99506 68.15610 38843 ft 467 kts 141°
2026-05-06 14:13 10.94446 68.19708 38836 ft 466 kts 141°
2026-05-06 14:14 10.89406 68.23788 38833 ft 466 kts 140°
2026-05-06 14:14 10.84493 68.27763 38832 ft 465 kts 140°
2026-05-06 14:15 10.79408 68.31876 38829 ft 466 kts 141°
2026-05-06 14:15 10.74302 68.36004 38833 ft 466 kts 140°
2026-05-06 14:16 10.69239 68.40095 38837 ft 466 kts 140°
2026-05-06 14:16 10.64131 68.44221 38836 ft 465 kts 140°
2026-05-06 14:17 10.59048 68.48325 38843 ft 466 kts 140°
2026-05-06 14:17 10.53938 68.52449 38847 ft 465 kts 140°
2026-05-06 14:18 10.48877 68.56531 38845 ft 464 kts 140°
2026-05-06 14:18 10.43797 68.60628 38845 ft 464 kts 140°
2026-05-06 14:19 10.38728 68.64713 38847 ft 464 kts 140°
2026-05-06 14:19 10.33661 68.68795 38849 ft 465 kts 141°
2026-05-06 14:20 10.28576 68.72890 38852 ft 464 kts 140°
2026-05-06 14:20 10.23516 68.76963 38850 ft 463 kts 141°
2026-05-06 14:21 10.18429 68.81056 38845 ft 464 kts 141°
2026-05-06 14:21 10.13391 68.85107 38849 ft 462 kts 141°
2026-05-06 14:22 10.08314 68.89189 38847 ft 462 kts 140°
2026-05-06 14:22 10.03280 68.93235 38848 ft 461 kts 140°
2026-05-06 14:23 9.98244 68.97280 38847 ft 462 kts 140°
2026-05-06 14:23 9.93185 69.01343 38846 ft 462 kts 140°
2026-05-06 14:24 9.88126 69.05403 38849 ft 462 kts 140°
2026-05-06 14:24 9.83167 69.09382 38847 ft 461 kts 140°
2026-05-06 14:25 9.78112 69.13435 38846 ft 462 kts 140°
2026-05-06 14:25 9.73072 69.17476 38844 ft 461 kts 140°
2026-05-06 14:26 9.68003 69.21535 38842 ft 461 kts 140°
2026-05-06 14:26 9.62951 69.25577 38843 ft 462 kts 140°
2026-05-06 14:27 9.57883 69.29631 38841 ft 462 kts 140°
2026-05-06 14:27 9.52856 69.33651 38839 ft 462 kts 140°
2026-05-06 14:28 9.47794 69.37697 38835 ft 462 kts 140°
2026-05-06 14:28 9.42767 69.41714 38832 ft 463 kts 140°
2026-05-06 14:29 9.37727 69.45739 38830 ft 463 kts 140°
2026-05-06 14:29 9.32625 69.49813 38837 ft 464 kts 140°
2026-05-06 14:30 9.27527 69.53882 38845 ft 462 kts 140°
2026-05-06 14:30 9.22335 69.58024 38849 ft 462 kts 140°
2026-05-06 14:31 9.17231 69.62094 38850 ft 464 kts 140°
2026-05-06 14:31 9.12135 69.66157 38853 ft 463 kts 141°
2026-05-06 14:32 9.07080 69.70185 38847 ft 464 kts 141°
2026-05-06 14:32 9.01953 69.74269 38846 ft 464 kts 140°
2026-05-06 14:33 8.96849 69.78334 38849 ft 465 kts 140°
2026-05-06 14:33 8.91795 69.82357 38845 ft 464 kts 141°
2026-05-06 14:34 8.86711 69.86402 38847 ft 462 kts 141°
2026-05-06 14:34 8.81613 69.90457 38849 ft 463 kts 141°
2026-05-06 14:35 8.76557 69.94478 38849 ft 464 kts 140°
2026-05-06 14:35 8.71472 69.98520 38847 ft 464 kts 141°
2026-05-06 14:36 8.66401 70.02549 38848 ft 465 kts 140°
2026-05-06 14:36 8.61289 70.06609 38847 ft 465 kts 140°
2026-05-06 14:37 8.56192 70.10656 38846 ft 463 kts 140°
2026-05-06 14:37 8.51135 70.14670 38846 ft 463 kts 140°
2026-05-06 14:38 8.46044 70.18710 38845 ft 465 kts 140°
2026-05-06 14:38 8.40943 70.22756 38844 ft 465 kts 140°
2026-05-06 14:39 8.35876 70.26774 38843 ft 464 kts 140°
2026-05-06 14:39 8.30758 70.30830 38841 ft 464 kts 140°
2026-05-06 14:40 8.25698 70.34840 38838 ft 465 kts 140°
2026-05-06 14:40 8.20594 70.38883 38835 ft 465 kts 140°
2026-05-06 14:41 8.15451 70.42956 38833 ft 466 kts 140°
2026-05-06 14:41 8.10338 70.47003 38834 ft 466 kts 140°
2026-05-06 14:42 8.05228 70.51047 38840 ft 465 kts 140°
2026-05-06 14:42 8.00124 70.55084 38841 ft 465 kts 140°
2026-05-06 14:43 7.95007 70.59131 38851 ft 465 kts 140°
2026-05-06 14:43 7.89848 70.63210 38850 ft 466 kts 140°
2026-05-06 14:44 7.84701 70.67277 38857 ft 466 kts 140°
2026-05-06 14:45 7.76992 70.73367 38854 ft 466 kts 140°
2026-05-06 14:45 7.71852 70.77425 38852 ft 464 kts 140°
2026-05-06 14:46 7.66737 70.81464 38854 ft 466 kts 140°
2026-05-06 14:46 7.61600 70.85517 38853 ft 466 kts 140°
2026-05-06 14:47 7.56564 70.89490 38851 ft 467 kts 140°
2026-05-06 14:47 7.51549 70.93446 38848 ft 466 kts 140°
2026-05-06 14:48 7.46538 70.97394 38848 ft 467 kts 140°
2026-05-06 14:48 7.41393 71.01444 38846 ft 465 kts 140°
2026-05-06 14:49 7.36387 71.05383 38849 ft 466 kts 140°
2026-05-06 14:49 7.31398 71.09308 38847 ft 465 kts 140°
2026-05-06 14:50 7.26278 71.13335 38844 ft 466 kts 140°
2026-05-06 14:50 7.21174 71.17348 38841 ft 465 kts 140°
2026-05-06 14:51 7.16135 71.21309 38842 ft 465 kts 140°
2026-05-06 14:51 7.11101 71.25266 38841 ft 465 kts 140°
2026-05-06 14:52 7.05960 71.29304 38846 ft 466 kts 140°
2026-05-06 14:52 7.00842 71.33324 38840 ft 465 kts 140°
2026-05-06 14:53 6.95831 71.37258 38839 ft 466 kts 140°
2026-05-06 14:53 6.90686 71.41297 38840 ft 465 kts 140°
2026-05-06 14:54 6.85601 71.45287 38838 ft 464 kts 140°
2026-05-06 14:54 6.80721 71.49115 38832 ft 464 kts 140°
2026-05-06 14:55 6.75913 71.52886 38840 ft 463 kts 140°
2026-05-06 14:55 6.71076 71.56679 38850 ft 464 kts 140°
2026-05-06 14:56 6.66025 71.60638 38850 ft 463 kts 140°
2026-05-06 14:56 6.60900 71.64655 38848 ft 463 kts 140°
2026-05-06 14:57 6.56030 71.68470 38857 ft 462 kts 140°
2026-05-06 14:57 6.51009 71.72403 38853 ft 461 kts 140°